{"data":{"norad_id":54098,"intl_designator":"2022-136AZ","name":"STARLINK-5217","alt_names":[],"object_type":"PAYLOAD","status":"ACTIVE","operator":null,"country":"US","launch_date":"2022-10-20","launch_site_code":"AFETR","launch_vehicle":null,"mission":null,"orbit_class":"UNKNOWN","rcs_meters":null,"size_class":null,"mass_kg":null,"dimensions":null,"purposes":["comms"],"wikipedia_slug":null,"has_3d_model":false,"image_url":null,"decayed_at":null,"tle_current":{"epoch":"2026-09-20T22:00:03.000096Z","epoch_age_seconds":53276,"freshness":"FRESH","line1":"1 54098U 22136AZ  26263.91670139  .00010681  00000+0  48975-3 0  9996","line2":"2 54098  53.1593 176.8426 0000411 159.3176  54.2235 15.20979568  5699","mean_motion":15.20979568,"eccentricity":4.11e-5,"inclination_deg":53.1593,"raan_deg":176.8426,"arg_perigee_deg":159.3176,"mean_anomaly_deg":54.2235,"bstar":0.00048975,"rev_number":569,"period_min":94.67582801875,"perigee_km":502.60179287886,"apogee_km":503.16741285462,"semimajor_km":6881.0216028667,"source":"CELESTRAK","updated_at":"2026-09-21T09:00:33.085069Z"}}}